map of KAHQ home
Great Circle Mapper logo
KAHQ - Airport
Location
City:  Wahoo, Nebraska, United States
Name:Wahoo Municipal Airport
ICAO:KAHQ
FAA:AHQ

Details
Type:Airport (Airfield)
Use:Public/Civil
Latitude:4114'26"N (41.240608)
Longitude:9635'40"W (-96.594554)
Datum:WGS 1984
Elevation:1224 ft (373 m)
Runways:2
Longest:4100 × 75 ft (1250 × 23 m), paved

Time
Time Zone:UTC-6 (DST-5)
Local Time:

Weather
METAR:KAHQ 251835Z AUTO 00000KT 10SM CLR 22/02 A3011 RMK AO2 T02170021

Related Locations
Nearby:
Farthest:MGV: 10642 mi / 17126 km
Margaret River, WA, AU

Find:

   beyond  
but within

Other Information
Maps:
NOTAMs:
Links:
Sources:

  
flag of United States
flag of Nebraska
  

Sectional Chart

Flight Planning
at skyvector.com

Satellite Image

Google Maps Satellite View

 

Copyright © 2004-2014 Karl L. Swartz. All rights reserved.
The Great Circle Mapper name and logo are trademarks of the Great Circle Mapper.
All other trademarks mentioned herein belong to their respective owners.
Please see credits for attibutions and further copyright information.

  Follow gcmap on Facebook Follow gcmap on Twitter

hCard Microformat

Geo Microformat